250  
ASUS42 KMHX 271125  
RWRMHX  
WEATHER ROUNDUP FOR EASTERN NORTH CAROLINA  
NATIONAL WEATHER SERVICE NEWPORT/MOREHEAD CITY NC  
700 AM EDT WED MAY 27 2015  
 
NOTE: "FAIR" INDICATES FEW OR NO CLOUDS BELOW 12,000 FEET  
WITH NO SIGNIFICANT WEATHER AND/OR S TO VISIBILITY
 
 
NCZ015>017-031-032-045>047-102-103-271200-  
NORTH COAST  
 
CITY SKY/WX TMP DP RH WIND PRES REMARKS
 
EDENTON PTSUNNY 72 67 84 S9 30.25S  
ELIZABETH CITY PTSUNNY 72 66 81 S10 30.25R  
KITTY HAWK PTSUNNY 73 65 77 S7 30.25S  
MANTEO PTSUNNY 73 65 78 S14 30.27R  
 

 
 
NCZ045>047-081-094-103-104-271200-  
CENTRAL COAST  
 
CITY SKY/WX TMP DP RH WIND PRES REMARKS
 
FRISCO PTSUNNY 73 62 68 S9 30.29R  
SWANQUARTER N/A 75 N/A N/A S10 30.24S  
 

 
 
NCZ095-097-098-100-101-271200-  
SOUTHERN COAST  
 
CITY SKY/WX TMP DP RH WIND PRES REMARKS
 
BEAUFORT CLOUDY 74 67 78 S6 30.27R  
CEDAR ISLAND N/A 75 N/A N/A SE6 30.30S  
JACKSONVILLE PTSUNNY 74 70 87 S7 30.25R  
PINEY ISLAND PTSUNNY N/A N/A N/A SE5 30.26S  
WILMINGTON MOSUNNY 73 69 87 SE3 30.24R  
 

 
 
NCZ011>013-027>030-043-044-078>080-089-090>093-098-271200-  
COASTAL PLAIN  
 
CITY SKY/WX TMP DP RH WIND PRES REMARKS
 
AHOSKIE SUNNY 70 67 92 S6 30.24R  
CLINTON MOCLDY 71 70 99 CALM 30.25R  
ELIZABETHTOWN CLEAR 70 70 100 SE5 30.24R FOG  
GOLDSBORO CLOUDY 72 70 94 CALM 30.22R  
GREENVILLE CLOUDY 72 70 94 S8 30.25S  
HAVELOCK CLOUDY 72 67 84 SE3 30.27R  
KENANSVILLE CLOUDY 70 69 96 CALM 30.26R FOG  
KINSTON PTSUNNY 72 70 94 S6 30.25R  
NEW BERN PTSUNNY 72 67 84 SE6 30.26S  
RICHLANDS PTSUNNY 73 66 78 S3 30.25S  
ROCKY MOUNT PTSUNNY 72 70 93 S7 30.23S  
WASHINGTON PTSUNNY 71 68 88 S5 30.25S  
WHITEVILLE CLEAR 72 69 92 CALM 30.24R  
 

 
 
AMZ130-135-150-152-154-156-158-170-250-252-270-ANZ085-086-088-633-658-670-271200-  
MARINE OBSERVATIONS  
 
STATION/POSITION TIME TEMP WIND PRES WAVE SWELL
 
AIR SEA DIR/SP/G HT/PER HT/PER  
(UTC) (F) (DEG/KT/KT) (MB) (FT/S) (FT/S)  
CHESAPEAKE LIGHT 1100 67 180/ 22/ 22 1023.8  
64 E VA BEACH 1050 66 62 170/ 10/ 12 1024.6 3/ 6 2/ 6  
DUCK 1100 72 57 180/ 11/ 16 1023.5  
2 E DUCK 1011 61 N/A 2/ 5  
OREGON INLET 1100 73 75 180/ 11/ 14 1025.1  
13E OREGON INLT 1100 68 N/A 3/ 5  
HATTERAS CG 1100 74 75 170/ 7/ 10 1024.9  
DIAMOND BUOY 1050 75 76 200/ 8/ 12 1025.6 3/ 7 2/ 7  
CAPE LOOKOUT 1100 73 200/ 4/ 5 1024.7  
BEAUFORT LAB 1100 75 75 180/ 9/ 11 1024.0  
27 SE WRIGHTSVLE 1100 73 76 170/ 8/ 10 N/A  
5 SE WRIGHTSVLE 1008 76 76 190/ 8/ 10 1023.9  
225 S CAPE HAT 1050 72 74 100/ 6/ 8 1025.8 4/ 7 3/ 7  
41 SE CHARLESTON 1050 77 76 150/ 10/ 12 1022.8 3/ 7 3/ 7  
 

 
 
CLICK HERE TO GO TO PREVIOUS BULLETINS.

The Nexlab NC Page Main Text Page